Location: La Fredeussais
(48.1780°N, 1.3980°W)
Time: 08:56:21
(UTC+00:00)

Cosmos 1933 Rocket - Pass Details

Date: 09 May 2021
Orbit: 606 x 630 km, 82.5° (Epoch: 12 June)

Event Time Altitude Azimuth Distance (km) Brightness Sun altitude
Rises 22:02:51 0° 346° (NNW) 2,879 8.4 -19.0°
Reaches altitude 10° 22:05:07 10° 341° (NNW) 1,969 7.3 -19.2°
Maximum altitude 22:09:20 51° 266° (W) 767 4.1 -19.6°
Enters shadow 22:11:05 31° 208° (SSW) 1,072 4.5 -19.7°
